Regional Weather Roundup
Issued by NWS

Home | Current Version | Previous Version | Graphics & Text | Print | Product List | Glossary On
Versions: 1 2 3 4 5 6 7 8 9 10 11 12 13 14 15 16 17 18 19 20 21 22 23 24 25 26 27 28 29 30 31 32 33 34 35 36 37 38 39 40 41 42 43 44 45 46 47 48 49 50
000
ASUS43 KLSX 241859
RWRMO

WEATHER SUMMARY FOR MISSOURI
NATIONAL WEATHER SERVICE SPRINGFIELD MO
200 PM CDT WED MAY 24 2017

NOTE: "FAIR" INDICATES FEW OR NO CLOUDS BELOW 12,000 FEET WITH NO
       SIGNIFICANT WEATHER AND/OR OBSTRUCTIONS TO VISIBILITY.
       CURRENT SKY AND/OR WEATHER CONDITIONS ARE NOT AVAILABLE FOR
       CHILLICOTHE AND FARMINGTON.

MOZ001>031-035>038-043-044-053-054-242000-
...NORTHERN AND WESTERN MISSOURI...

CITY           SKY/WX    TMP DP  RH WIND       PRES   REMARKS
KANSAS CTY INT PTSUNNY   62  50  64 N13       29.69S
KANSAS C DTWN  CLOUDY    62  49  62 N8        29.68S
LEE`S SUMMIT   CLOUDY    60  50  69 NW15G22   29.69S
ST JOSEPH      CLOUDY    62  50  64 N13       29.70S
CHILLICOTHE      N/A     57  53  86 VRB6      29.67R
KIRKSVILLE     CLOUDY    58  49  72 N15       29.65R

$$
MOZ066>068-077>081-088>096-101>105-242000-
...SOUTHWEST MISSOURI...

CITY           SKY/WX    TMP DP  RH WIND       PRES   REMARKS
SPRINGFIELD    CLOUDY    58  49  72 NW9G20    29.68R
JOPLIN         CLOUDY    63  49  60 NW13      29.71F
BRANSON        CLOUDY    59  45  58 NW15      29.69S

$$
MOZ032>034-039>042-045>050-055>058-069>072-242000-
...CENTRAL MISSOURI...

CITY           SKY/WX    TMP DP  RH WIND       PRES   REMARKS
COLUMBIA       PTSUNNY   61  48  62 NW12      29.64S
JEFFERSON CITY CLOUDY    63  45  51 N9        29.63S
ROLLA          PTSUNNY   60  52  74 NW8       29.61F
SEDALIA        CLOUDY    63  52  67 N10       29.66S
WARRENSBURG    CLOUDY    59  52  77 NW7       29.67S
OSAGE BEACH    CLOUDY    58  48  69 W6        29.65S

$$
MOZ051-052-059>065-242000-
...EAST CENTRAL MISSOURI...

CITY           SKY/WX    TMP DP  RH WIND       PRES   REMARKS
ST LOUIS INTL  CLOUDY    67  49  52 N14       29.57F
SPIRIT OF STL  CLOUDY    62  48  60 NW10      29.58R
ST CHARLES     PTSUNNY   64  50  60 NW12      29.57S

$$
MOZ072>076-082>087-097>100-106>115-242000-
...SOUTH CENTRAL AND SOUTHEAST MISSOURI...

CITY           SKY/WX    TMP DP  RH WIND       PRES   REMARKS
CAPE GIRARDEAU CLOUDY    66  46  48 NW15      29.54S
FARMINGTON     CLOUDY    60  46  59 NW9       29.59S
POPLAR BLUFF   PTSUNNY   66  49  54 NW16G22   29.56F
WEST PLAINS    CLOUDY    60  46  59 NW13      29.65R

$$




USA.gov is the U.S. government's official web portal to all federal, state and local government web resources and services.